Seattle Boeing, WA
on Saturday, November 3, 2012

Saturday
Previous Day Next Day
Daily Summary
 ActualAverage (KSEA)Record (KSEA)
Temperature
Mean Temperature °F 48°F  
Max Temperature 60°F 54°F 74°F (2010)
Min Temperature 53°F 43°F 29°F (1953)
Degree Days
Heating Degree Days 8 17  
Month to date heating degree days 50  
Since 1 July heating degree days 647  
Cooling Degree Days 0 0  
Month to date cooling degree days 0  
Year to date cooling degree days 189  
Growing Degree Days6 (Base °F )  
Moisture
Dew Point 52°F   
Average Humidity 89    
Maximum Humidity 96    
Minimum Humidity 78    
Precipitation
Precipitation 0.02 in 0.20 in 1.37 in (1971)
Month to date precipitation 0.58  
Year to date precipitation 26.15  
Snow
Snow 0.00 in in 0.20 in (1973)
Month to date snowfall  
Since 1 July snowfall  
Snow Depth in   
Wind
Wind Speed 5 mph   
Max Wind Speed 14 mph   
Max Gust Speed 21 mph   
Visibility 10 miles   
Events Rain   

Key: T is trace of precipitation, MM is missing value
Source: NWS Daily Summary
Time(PDT)TemperatureDew PointHumidity Pressure Visibility Wind DirectionWind SpeedGust SpeedPrecipitationEvents Conditions
12:53 AM 53.1°F 52.0°F 96% 29.98 in 10.0 miles Calm Calm - 0.00 in   Overcast
1:53 AM 53.1°F 52.0°F 96% 29.97 in 9.0 miles Calm Calm - 0.01 in Rain Light Rain
2:53 AM 53.1°F 52.0°F 96% 29.98 in 10.0 miles SE 3.5 mph - 0.00 in   Overcast
3:53 AM 53.1°F 52.0°F 96% 29.99 in 8.0 miles SSE 4.6 mph - N/A   Overcast
4:00 AM 53.6°F 51.8°F 94% 29.99 in 6.0 miles SE 6.9 mph - 0.00 in Rain Light Rain
4:26 AM 53.6°F 51.8°F 94% 29.99 in 8.0 miles SE 5.8 mph - 0.00 in   Overcast
4:46 AM 53.6°F 51.8°F 94% 30.00 in 9.0 miles SE 6.9 mph - 0.00 in   Overcast
4:53 AM 53.1°F 52.0°F 96% 30.00 in 10.0 miles SE 6.9 mph - 0.00 in   Overcast
5:53 AM 53.1°F 52.0°F 96% 30.00 in 10.0 miles SSE 11.5 mph - N/A   Overcast
6:00 AM 53.6°F 51.8°F 94% 30.00 in 10.0 miles SSE 9.2 mph - N/A   Overcast
6:53 AM 53.1°F 52.0°F 96% 29.99 in 10.0 miles SSE 8.1 mph - N/A   Overcast
7:53 AM 54.0°F 51.1°F 90% 30.01 in 10.0 miles ESE 4.6 mph - N/A   Overcast
8:53 AM 55.0°F 51.1°F 86% 30.02 in 10.0 miles SE 4.6 mph - N/A   Overcast
9:25 AM 55.4°F 51.8°F 88% 30.03 in 10.0 miles ESE 4.6 mph - N/A   Overcast
9:53 AM 55.0°F 52.0°F 89% 30.03 in 10.0 miles SE 4.6 mph - N/A   Overcast
10:07 AM 55.4°F 51.8°F 88% 30.03 in 10.0 miles SE 5.8 mph - N/A   Overcast
10:53 AM 55.9°F 53.1°F 90% 30.03 in 10.0 miles SE 4.6 mph - N/A   Overcast
11:39 AM 57.2°F 53.6°F 88% 30.04 in 10.0 miles SSE 5.8 mph - N/A   Overcast
11:53 AM 57.0°F 53.1°F 87% 30.04 in 10.0 miles SSE 5.8 mph - N/A   Overcast
12:53 PM 57.9°F 53.1°F 84% 30.04 in 10.0 miles SSE 5.8 mph - N/A   Overcast
1:53 PM 60.1°F 54.0°F 80% 30.04 in 10.0 miles South 9.2 mph - N/A   Overcast
2:53 PM 60.1°F 53.1°F 78% 30.05 in 10.0 miles South 6.9 mph - N/A   Clear
3:53 PM 60.1°F 53.1°F 78% 30.07 in 10.0 miles South 6.9 mph - 0.00 in   Overcast
4:53 PM 57.9°F 54.0°F 87% 30.09 in 10.0 miles South 11.5 mph 18.4 mph 0.01 in   Mostly Cloudy
5:53 PM 59.0°F 54.0°F 83% 30.11 in 10.0 miles South 11.5 mph 18.4 mph N/A   Overcast
6:53 PM 59.0°F 53.1°F 81% 30.12 in 10.0 miles South 9.2 mph 19.6 mph N/A   Overcast
7:53 PM 57.9°F 52.0°F 81% 30.13 in 10.0 miles SSE 13.8 mph 20.7 mph 0.00 in   Overcast
8:53 PM 57.0°F 53.1°F 87% 30.13 in 10.0 miles SSE 11.5 mph - 0.00 in Rain Light Rain
9:53 PM 57.0°F 52.0°F 83% 30.15 in 10.0 miles SSE 5.8 mph - 0.00 in   Overcast
10:53 PM 57.0°F 52.0°F 83% 30.16 in 10.0 miles Variable 4.6 mph - 0.00 in   Overcast
11:53 PM 55.9°F 53.1°F 90% 30.18 in 10.0 miles ESE 3.5 mph - 0.00 in   Overcast
Moon Phase
Nov. 03 Nov. 06 Nov. 13 Nov. 20 Nov. 28
Sunrise:07:56 AM (PDT) Moon Rise:09:27 PM (PDT)11/3
Sunset:05:47 PM (PDT) Moon Set:12:12 PM (PDT)11/3

Copyright © 2014 The Weather Underground, Inc.